EWG7M LSGG-EDDL

Flight info

Callsign EWG7M
Flight time 1h 0m
Altitude 30000
Route ARBOS DCT PENDU DCT EPL DCT JARNY DCT ROUSY/N0433F310 M624 DIK N853 ARCKY T853 NVO T857 BIKMU BIKMU1A
Aircraft A319/M-SDE3FGHIRWY/LB1

Departure

Time 2026-05-04 18:51
Airport Geneva International Airport (LSGG)

Arrival

Time 2026-05-04 19:51
Airport Düsseldorf Airport (EDDL)
Time Latitude Longitude Altitude Speed Heading
2026-05-04 18:21 46.23031 6.10570 1393 ft 0 kts 135°
2026-05-04 18:40 46.23035 6.10565 1393 ft 4 kts 134°
2026-05-04 18:41 46.23052 6.10534 1404 ft 4 kts 112°
2026-05-04 18:41 46.23055 6.10500 1401 ft 4 kts 63°
2026-05-04 18:41 46.23048 6.10486 1404 ft 1 kts 45°
2026-05-04 18:41 46.23048 6.10485 1404 ft 0 kts 45°
2026-05-04 18:44 46.23078 6.10530 1400 ft 12 kts 45°
2026-05-04 18:44 46.23120 6.10591 1397 ft 13 kts 45°
2026-05-04 18:44 46.23198 6.10706 1393 ft 11 kts 45°
2026-05-04 18:44 46.23251 6.10773 1393 ft 10 kts 24°
2026-05-04 18:45 46.23328 6.10807 1397 ft 12 kts 27°
2026-05-04 18:45 46.23383 6.10885 1393 ft 10 kts 46°
2026-05-04 18:45 46.23448 6.10981 1396 ft 16 kts 46°
2026-05-04 18:45 46.23524 6.11093 1397 ft 15 kts 45°
2026-05-04 18:46 46.23590 6.11168 1396 ft 9 kts
2026-05-04 18:46 46.23639 6.11110 1392 ft 10 kts 313°
2026-05-04 18:46 46.23697 6.11066 1388 ft 10 kts 18°
2026-05-04 18:46 46.23772 6.11178 1379 ft 22 kts 46°
2026-05-04 18:47 46.23885 6.11344 1376 ft 26 kts 45°
2026-05-04 18:47 46.24025 6.11549 1371 ft 30 kts 45°
2026-05-04 18:47 46.24170 6.11762 1365 ft 30 kts 45°
2026-05-04 18:47 46.24314 6.11973 1363 ft 27 kts 45°
2026-05-04 18:48 46.24437 6.12154 1371 ft 23 kts 45°
2026-05-04 18:48 46.24544 6.12312 1372 ft 22 kts 45°
2026-05-04 18:48 46.24669 6.12498 1365 ft 30 kts 46°
2026-05-04 18:48 46.24806 6.12676 1362 ft 19 kts 21°
2026-05-04 18:49 46.24920 6.12724 1366 ft 16 kts 15°
2026-05-04 18:49 46.25012 6.12703 1371 ft 8 kts 316°
2026-05-04 18:49 46.24998 6.12646 1372 ft 7 kts 222°
2026-05-04 18:49 46.24990 6.12636 1372 ft 0 kts 225°
2026-05-04 18:50 46.24984 6.12626 1372 ft 10 kts 225°
2026-05-04 18:50 46.24770 6.12313 1372 ft 76 kts 225°
2026-05-04 18:50 46.24268 6.11572 1374 ft 129 kts 225°
2026-05-04 18:50 46.23535 6.10498 1493 ft 162 kts 226°
2026-05-04 18:51 46.22760 6.09323 2057 ft 162 kts 228°
2026-05-04 18:51 46.21980 6.08138 2701 ft 164 kts 226°
2026-05-04 18:51 46.21139 6.06902 3082 ft 182 kts 224°
2026-05-04 18:51 46.20204 6.05549 3521 ft 196 kts 224°
2026-05-04 18:52 46.19239 6.04170 4156 ft 200 kts 223°
2026-05-04 18:52 46.18213 6.02687 4579 ft 217 kts 225°
2026-05-04 18:52 46.17472 6.00650 4871 ft 250 kts 259°
2026-05-04 18:52 46.17790 5.98099 5493 ft 273 kts 296°
2026-05-04 18:53 46.19164 5.96144 6416 ft 288 kts 329°
2026-05-04 18:53 46.21116 5.95397 7334 ft 295 kts 354°
2026-05-04 18:53 46.23171 5.95417 8316 ft 296 kts
2026-05-04 18:53 46.25235 5.95605 9260 ft 298 kts
2026-05-04 18:54 46.27291 5.95802 10147 ft 301 kts
2026-05-04 18:54 46.29463 5.96011 10487 ft 324 kts
2026-05-04 18:54 46.31788 5.96232 10855 ft 342 kts
2026-05-04 18:54 46.34195 5.96461 11528 ft 349 kts
2026-05-04 18:55 46.36630 5.96692 12239 ft 353 kts
2026-05-04 18:55 46.41589 5.97166 13713 ft 361 kts
2026-05-04 18:55 46.44106 5.97410 14378 ft 364 kts
2026-05-04 18:56 46.46646 5.97657 14997 ft 368 kts
2026-05-04 18:56 46.48387 5.97822 15404 ft 372 kts
2026-05-04 18:56 46.50985 5.98065 16003 ft 376 kts
2026-05-04 18:56 46.53579 5.98307 16587 ft 381 kts
2026-05-04 18:57 46.56244 5.98558 17175 ft 386 kts
2026-05-04 18:57 46.58935 5.98816 17768 ft 390 kts
2026-05-04 18:57 46.61664 5.99083 18351 ft 395 kts
2026-05-04 18:57 46.64424 5.99350 18869 ft 399 kts
2026-05-04 18:58 46.67210 5.99614 19378 ft 404 kts
2026-05-04 18:58 46.70026 5.99883 19897 ft 408 kts
2026-05-04 18:58 46.72875 6.00157 20414 ft 412 kts
2026-05-04 18:58 46.75759 6.00436 20929 ft 417 kts
2026-05-04 18:59 46.78675 6.00719 21442 ft 421 kts
2026-05-04 18:59 46.81613 6.01003 21941 ft 425 kts
2026-05-04 18:59 46.84589 6.01292 22398 ft 430 kts
2026-05-04 18:59 46.87560 6.01579 22851 ft 435 kts
2026-05-04 19:00 46.90600 6.01870 23309 ft 440 kts
2026-05-04 19:00 46.93671 6.02165 23739 ft 444 kts
2026-05-04 19:00 46.96764 6.02465 24143 ft 447 kts
2026-05-04 19:00 46.99882 6.02744 24551 ft 450 kts
2026-05-04 19:01 47.03020 6.02893 24972 ft 452 kts 359°
2026-05-04 19:01 47.06171 6.02941 25380 ft 454 kts 358°
2026-05-04 19:01 47.09338 6.02938 25799 ft 456 kts 358°
2026-05-04 19:01 47.12517 6.02925 26201 ft 459 kts 358°
2026-05-04 19:02 47.15716 6.02927 26603 ft 461 kts 358°
2026-05-04 19:02 47.18932 6.02954 27007 ft 464 kts 358°
2026-05-04 19:02 47.22166 6.03008 27395 ft 466 kts 359°
2026-05-04 19:02 47.25427 6.03073 27804 ft 469 kts 359°
2026-05-04 19:03 47.28691 6.03141 28202 ft 471 kts 359°
2026-05-04 19:03 47.31985 6.03208 28591 ft 474 kts 359°
2026-05-04 19:03 47.35290 6.03273 28972 ft 476 kts 359°
2026-05-04 19:03 47.38614 6.03344 29337 ft 479 kts 359°
2026-05-04 19:04 47.41955 6.03429 29701 ft 481 kts 359°
2026-05-04 19:04 47.45306 6.03523 29970 ft 484 kts 359°
2026-05-04 19:04 47.48642 6.03622 30015 ft 473 kts 359°
2026-05-04 19:04 47.51901 6.03726 30012 ft 465 kts 359°
2026-05-04 19:05 47.58346 6.03917 30011 ft 461 kts 359°
2026-05-04 19:05 47.64764 6.04083 30010 ft 461 kts 359°
2026-05-04 19:06 47.71158 6.04244 30007 ft 463 kts 359°
2026-05-04 19:06 47.77639 6.04426 30005 ft 463 kts 359°
2026-05-04 19:07 47.84050 6.04600 30005 ft 463 kts 359°
2026-05-04 19:07 47.90495 6.04793 30005 ft 463 kts
2026-05-04 19:08 47.96938 6.05062 30002 ft 463 kts
2026-05-04 19:08 48.03388 6.05356 29998 ft 464 kts
2026-05-04 19:09 48.09833 6.05635 29998 ft 464 kts
2026-05-04 19:09 48.16284 6.05889 29999 ft 464 kts
2026-05-04 19:10 48.22736 6.06156 29996 ft 464 kts
2026-05-04 19:10 48.29190 6.06427 29998 ft 464 kts
2026-05-04 19:11 48.35637 6.06698 29996 ft 464 kts
2026-05-04 19:11 48.42085 6.06971 29992 ft 463 kts
2026-05-04 19:12 48.51760 6.07374 29990 ft 463 kts
2026-05-04 19:13 48.58208 6.07650 29987 ft 464 kts
2026-05-04 19:13 48.64665 6.07928 30002 ft 464 kts
2026-05-04 19:14 48.71114 6.08210 29983 ft 464 kts
2026-05-04 19:14 48.77581 6.08487 29983 ft 464 kts
2026-05-04 19:15 48.84041 6.08764 29985 ft 464 kts
2026-05-04 19:15 48.90502 6.09029 29988 ft 464 kts
2026-05-04 19:16 48.96965 6.09297 29987 ft 465 kts
2026-05-04 19:16 49.03431 6.09573 29984 ft 465 kts
2026-05-04 19:17 49.09915 6.09857 29975 ft 466 kts
2026-05-04 19:17 49.16354 6.10132 29984 ft 466 kts
2026-05-04 19:18 49.22842 6.10421 29963 ft 466 kts
2026-05-04 19:18 49.29331 6.10705 29964 ft 466 kts
2026-05-04 19:19 49.35815 6.10987 29959 ft 466 kts
2026-05-04 19:19 49.42306 6.11276 29970 ft 466 kts
2026-05-04 19:20 49.48791 6.11552 29965 ft 466 kts 360°
2026-05-04 19:20 49.55278 6.11802 29963 ft 466 kts 360°
2026-05-04 19:21 49.61777 6.12038 29959 ft 466 kts 359°
2026-05-04 19:21 49.68265 6.12281 29973 ft 466 kts 359°
2026-05-04 19:22 49.74709 6.12538 29977 ft 466 kts 360°
2026-05-04 19:22 49.81194 6.12787 29978 ft 465 kts 359°
2026-05-04 19:23 49.87666 6.13022 29979 ft 465 kts 359°
2026-05-04 19:23 49.94138 6.13099 29978 ft 465 kts 358°
2026-05-04 19:24 50.00608 6.13078 29964 ft 465 kts 358°
2026-05-04 19:24 50.07075 6.13082 29962 ft 465 kts 358°
2026-05-04 19:24 50.10304 6.13095 29615 ft 463 kts 358°
2026-05-04 19:25 50.13522 6.13110 29041 ft 461 kts 358°
2026-05-04 19:25 50.16717 6.13131 28493 ft 458 kts 358°
2026-05-04 19:25 50.19892 6.13157 27948 ft 454 kts 358°
2026-05-04 19:25 50.23037 6.13183 27423 ft 450 kts 358°
2026-05-04 19:26 50.26158 6.13318 26895 ft 448 kts
2026-05-04 19:26 50.29212 6.14185 26445 ft 445 kts 14°
2026-05-04 19:26 50.32111 6.15827 25983 ft 441 kts 25°
2026-05-04 19:26 50.34771 6.18175 25530 ft 437 kts 33°
2026-05-04 19:27 50.37299 6.20773 25100 ft 433 kts 33°
2026-05-04 19:27 50.39807 6.23356 24669 ft 429 kts 33°
2026-05-04 19:27 50.42292 6.25915 24247 ft 426 kts 33°
2026-05-04 19:27 50.44762 6.28460 23814 ft 424 kts 33°
2026-05-04 19:28 50.47220 6.30999 23351 ft 422 kts 33°
2026-05-04 19:28 50.49657 6.33515 22908 ft 417 kts 33°
2026-05-04 19:28 50.52105 6.35917 22568 ft 410 kts 31°
2026-05-04 19:28 50.54542 6.38172 22233 ft 403 kts 30°
2026-05-04 19:29 50.56963 6.40340 21901 ft 398 kts 30°
2026-05-04 19:29 50.59360 6.42475 21568 ft 395 kts 30°
2026-05-04 19:29 50.61744 6.44622 21241 ft 393 kts 30°
2026-05-04 19:29 50.64102 6.46770 20859 ft 389 kts 30°
2026-05-04 19:30 50.66414 6.48899 20473 ft 379 kts 31°
2026-05-04 19:30 50.68660 6.50979 20103 ft 370 kts 31°
2026-05-04 19:30 50.70858 6.53018 19736 ft 361 kts 31°
2026-05-04 19:30 50.72996 6.55006 19374 ft 353 kts 31°
2026-05-04 19:31 50.75091 6.56954 19003 ft 345 kts 31°
2026-05-04 19:31 50.77084 6.58805 18744 ft 334 kts 31°
2026-05-04 19:31 50.79049 6.60634 18506 ft 322 kts 31°
2026-05-04 19:31 50.80978 6.62341 18220 ft 314 kts 25°
2026-05-04 19:32 50.83001 6.63562 17832 ft 312 kts 15°
2026-05-04 19:32 50.85122 6.64261 17476 ft 311 kts
2026-05-04 19:32 50.87263 6.64709 17134 ft 310 kts
2026-05-04 19:32 50.89391 6.65144 16791 ft 308 kts
2026-05-04 19:33 50.91500 6.65572 16446 ft 302 kts
2026-05-04 19:33 50.93575 6.65993 16123 ft 301 kts
2026-05-04 19:33 50.95647 6.66414 15796 ft 300 kts
2026-05-04 19:33 50.97721 6.66835 15472 ft 300 kts
2026-05-04 19:34 50.99790 6.67256 15152 ft 300 kts
2026-05-04 19:34 51.01859 6.67678 14836 ft 299 kts
2026-05-04 19:34 51.03922 6.68099 14524 ft 299 kts
2026-05-04 19:34 51.05964 6.68517 14223 ft 292 kts
2026-05-04 19:35 51.07966 6.68928 13939 ft 289 kts
2026-05-04 19:35 51.09961 6.69339 13675 ft 288 kts
2026-05-04 19:35 51.11939 6.69747 13393 ft 286 kts
2026-05-04 19:35 51.13910 6.70153 13099 ft 284 kts
2026-05-04 19:36 51.15867 6.70549 12797 ft 283 kts
2026-05-04 19:36 51.17821 6.70930 12503 ft 282 kts
2026-05-04 19:36 51.19737 6.71306 12225 ft 281 kts
2026-05-04 19:36 51.21670 6.71686 11941 ft 279 kts
2026-05-04 19:37 51.23595 6.72065 11660 ft 278 kts
2026-05-04 19:37 51.24892 6.72321 11470 ft 278 kts
2026-05-04 19:37 51.27424 6.72820 11108 ft 276 kts
2026-05-04 19:37 51.29328 6.73198 10830 ft 275 kts
2026-05-04 19:38 51.31201 6.73780 10552 ft 274 kts 19°
2026-05-04 19:38 51.32399 6.74509 10374 ft 273 kts 22°
2026-05-04 19:38 51.34154 6.75679 10104 ft 272 kts 23°
2026-05-04 19:38 51.35895 6.76859 9840 ft 271 kts 23°
2026-05-04 19:39 51.37624 6.78038 9553 ft 270 kts 23°
2026-05-04 19:39 51.39336 6.79200 9334 ft 265 kts 23°
2026-05-04 19:39 51.40973 6.80502 9077 ft 261 kts 39°
2026-05-04 19:39 51.42213 6.82532 8724 ft 258 kts 52°
2026-05-04 19:40 51.43339 6.84762 8335 ft 257 kts 53°
2026-05-04 19:40 51.44461 6.87029 7948 ft 256 kts 53°
2026-05-04 19:40 51.45546 6.89236 7579 ft 255 kts 53°
2026-05-04 19:40 51.46655 6.91502 7260 ft 254 kts 53°
2026-05-04 19:41 51.47731 6.93701 7028 ft 253 kts 53°
2026-05-04 19:41 51.48817 6.95922 6968 ft 253 kts 53°
2026-05-04 19:41 51.49907 6.98153 6971 ft 254 kts 53°
2026-05-04 19:41 51.50991 7.00378 6741 ft 252 kts 53°
2026-05-04 19:42 51.52070 7.02589 6391 ft 251 kts 53°
2026-05-04 19:42 51.53145 7.04796 6001 ft 250 kts 53°
2026-05-04 19:42 51.54214 7.06997 5617 ft 249 kts 53°
2026-05-04 19:42 51.55277 7.09197 5238 ft 248 kts 53°
2026-05-04 19:43 51.56299 7.11409 5007 ft 244 kts 62°
2026-05-04 19:43 51.56726 7.13997 5009 ft 241 kts 95°
2026-05-04 19:43 51.56254 7.16514 5004 ft 234 kts 127°
2026-05-04 19:43 51.55116 7.18301 4725 ft 227 kts 154°
2026-05-04 19:44 51.53617 7.18840 4394 ft 222 kts 187°
2026-05-04 19:44 51.52140 7.18177 4038 ft 222 kts 202°
2026-05-04 19:44 51.50704 7.17239 3686 ft 223 kts 203°
2026-05-04 19:44 51.49273 7.16260 3364 ft 223 kts 203°
2026-05-04 19:45 51.47851 7.15249 3068 ft 223 kts 207°
2026-05-04 19:45 51.46689 7.13630 3018 ft 224 kts 231°
2026-05-04 19:45 51.45747 7.11623 3017 ft 225 kts 232°
2026-05-04 19:45 51.44807 7.09612 3011 ft 226 kts 232°
2026-05-04 19:46 51.43863 7.07602 3012 ft 225 kts 232°
2026-05-04 19:46 51.42913 7.05584 3012 ft 226 kts 232°
2026-05-04 19:46 51.41968 7.03578 3011 ft 226 kts 232°
2026-05-04 19:46 51.41023 7.01574 3015 ft 226 kts 232°
2026-05-04 19:47 51.40079 6.99572 3012 ft 224 kts 232°
2026-05-04 19:47 51.39184 6.97675 3011 ft 208 kts 232°
2026-05-04 19:47 51.38326 6.95859 2906 ft 197 kts 231°
2026-05-04 19:47 51.37531 6.94177 2712 ft 188 kts 232°
2026-05-04 19:48 51.36753 6.92533 2459 ft 182 kts 232°
2026-05-04 19:48 51.36006 6.90953 2217 ft 174 kts 232°
2026-05-04 19:48 51.35282 6.89425 1984 ft 171 kts 231°
2026-05-04 19:48 51.34569 6.87920 1753 ft 169 kts 231°
2026-05-04 19:49 51.33864 6.86434 1525 ft 160 kts 230°
2026-05-04 19:49 51.33228 6.85090 1324 ft 147 kts 229°
2026-05-04 19:49 51.32628 6.83826 1130 ft 137 kts 230°
2026-05-04 19:49 51.32062 6.82636 947 ft 131 kts 227°
2026-05-04 19:50 51.31517 6.81488 783 ft 128 kts 228°
2026-05-04 19:50 51.30985 6.80368 574 ft 124 kts 231°
2026-05-04 19:50 51.30450 6.79256 400 ft 126 kts 232°
2026-05-04 19:50 51.29926 6.78142 225 ft 125 kts 229°
2026-05-04 19:51 51.29413 6.77066 134 ft 112 kts 232°
2026-05-04 19:51 51.29020 6.76225 134 ft 78 kts 232°
2026-05-04 19:51 51.28709 6.75585 128 ft 62 kts 233°
2026-05-04 19:51 51.28462 6.75069 123 ft 43 kts 233°
2026-05-04 19:52 51.28348 6.74943 122 ft 17 kts 153°
2026-05-04 19:52 51.28241 6.75031 119 ft 17 kts 154°
2026-05-04 19:52 51.28142 6.75108 119 ft 12 kts 154°
2026-05-04 19:52 51.28092 6.75147 123 ft 2 kts 153°
2026-05-04 19:53 51.28082 6.75156 120 ft 1 kts 153°
2026-05-04 19:57 51.28080 6.75158 123 ft 2 kts 153°
2026-05-04 19:57 51.28015 6.75210 122 ft 15 kts 153°
2026-05-04 19:57 51.27924 6.75283 122 ft 7 kts 153°
2026-05-04 19:57 51.27877 6.75321 124 ft 9 kts 153°
2026-05-04 19:58 51.27839 6.75400 126 ft 10 kts 90°
2026-05-04 19:58 51.27877 6.75492 126 ft 8 kts 51°
2026-05-04 19:58 51.27886 6.75510 126 ft 0 kts 52°
2026-05-04 20:00 51.27888 6.75515 126 ft 4 kts 52°
2026-05-04 20:00 51.27899 6.75573 129 ft 6 kts 93°
2026-05-04 20:01 51.27868 6.75635 126 ft 9 kts 131°
2026-05-04 20:01 51.27861 6.75747 129 ft 12 kts 92°
2026-05-04 20:01 51.27845 6.75883 130 ft 12 kts 97°
2026-05-04 20:01 51.27843 6.75995 130 ft 9 kts 91°
2026-05-04 20:02 51.27842 6.76116 130 ft 13 kts 91°
2026-05-04 20:02 51.27839 6.76263 130 ft 11 kts 91°
2026-05-04 20:02 51.27841 6.76331 130 ft 4 kts 88°
2026-05-04 20:02 51.27861 6.76377 130 ft 3 kts 42°
2026-05-04 20:03 51.27869 6.76389 130 ft 2 kts 44°
2026-05-04 20:03 51.27870 6.76391 130 ft 0 kts 44°